| time (UTC) | temp F | wind direction | speed MPH | gust MPH | rain 1hr in | rain 24hr in | rain mn in | humidity % | barometer mb |
| 20260504013118 | 62 | 179 | 4.0 | 11.0 | 0.00 | 0.00 | 0.00 | 58 | 1008.3 |
| 20260504011556 | 63 | 217 | 6.0 | 14.0 | 0.00 | 0.00 | 0.00 | 57 | 1008.1 |
| 20260504010057 | 63 | 184 | 6.0 | 13.0 | 0.00 | 0.00 | 0.00 | 56 | 1008.0 |
| 20260504004554 | 64 | 203 | 7.0 | 11.0 | 0.00 | 0.00 | 0.00 | 53 | 1008.1 |
| 20260504003054 | 64 | 213 | 7.0 | 14.0 | 0.00 | 0.00 | 0.00 | 52 | 1008.1 |
| 20260504001554 | 65 | 208 | 6.0 | 12.0 | 0.00 | 0.00 | 0.00 | 51 | 1008.0 |
| 20260504000052 | 65 | 209 | 7.0 | 16.0 | 0.00 | 0.00 | 0.00 | 50 | 1008.2 |
| 20260503234550 | 66 | 213 | 8.0 | 14.0 | 0.00 | 0.00 | 0.00 | 50 | 1008.2 |
| 20260503233049 | 66 | 197 | 9.0 | 17.0 | 0.00 | 0.00 | 0.00 | 49 | 1008.3 |
| 20260503231548 | 66 | 213 | 7.0 | 18.0 | 0.00 | 0.00 | 0.00 | 50 | 1008.3 |
| 20260503230051 | 66 | 226 | 10.0 | 17.0 | 0.00 | 0.00 | 0.00 | 49 | 1008.5 |
| 20260503224547 | 65 | 207 | 11.0 | 17.0 | 0.00 | 0.00 | 0.00 | 49 | 1008.7 |
| 20260503223044 | 65 | 204 | 7.0 | 14.0 | 0.00 | 0.00 | 0.00 | 49 | 1008.8 |
| 20260503221556 | 65 | 211 | 9.0 | 17.0 | 0.00 | 0.00 | 0.00 | 49 | 1008.7 |
| 20260503220040 | 64 | 173 | 11.0 | 19.0 | 0.00 | 0.00 | 0.00 | 50 | 1008.5 |
| 20260503214541 | 63 | 209 | 9.0 | 17.0 | 0.00 | 0.00 | 0.00 | 51 | 1008.9 |
| 20260503213042 | 63 | 189 | 10.0 | 20.0 | 0.00 | 0.00 | 0.00 | 53 | 1008.9 |
| 20260503211534 | 63 | 229 | 11.0 | 19.0 | 0.00 | 0.00 | 0.00 | 52 | 1009.1 |
| 20260503210032 | 63 | 219 | 12.0 | 19.0 | 0.00 | 0.00 | 0.00 | 53 | 1009.6 |
| 20260503204531 | 63 | 221 | 10.0 | 17.0 | 0.00 | 0.00 | 0.00 | 53 | 1009.9 |
| 20260503203035 | 63 | 209 | 12.0 | 20.0 | 0.00 | 0.00 | 0.00 | 53 | 1009.9 |
| 20260503201529 | 62 | 232 | 13.0 | 18.0 | 0.00 | 0.00 | 0.00 | 52 | 1010.0 |
| 20260503200027 | 62 | 173 | 12.0 | 20.0 | 0.00 | 0.00 | 0.00 | 51 | 1010.6 |
| 20260503194523 | 62 | 205 | 11.0 | 19.0 | 0.00 | 0.00 | 0.00 | 50 | 1011.0 |
| 20260503193124 | 63 | 218 | 11.0 | 20.0 | 0.00 | 0.00 | 0.00 | 48 | 1011.5 |
| 20260503191538 | 62 | 192 | 14.0 | 19.0 | 0.00 | 0.00 | 0.00 | 49 | 1011.8 |
| 20260503190025 | 62 | 219 | 10.0 | 17.0 | 0.00 | 0.00 | 0.00 | 48 | 1012.5 |
| 20260503184513 | 60 | 219 | 11.0 | 17.0 | 0.00 | 0.00 | 0.00 | 49 | 1013.3 |
| 20260503183010 | 61 | 211 | 11.0 | 18.0 | 0.00 | 0.00 | 0.00 | 48 | 1013.4 |
| 20260503181510 | 61 | 225 | 10.0 | 17.0 | 0.00 | 0.00 | 0.00 | 47 | 1013.6 |
| 20260503180010 | 61 | 213 | 12.0 | 18.0 | 0.00 | 0.00 | 0.00 | 46 | 1013.8 |
| 20260503174508 | 62 | 198 | 13.0 | 17.0 | 0.00 | 0.00 | 0.00 | 46 | 1013.6 |
| 20260503173005 | 61 | 214 | 11.0 | 18.0 | 0.00 | 0.00 | 0.00 | 48 | 1014.1 |
| 20260503171502 | 62 | 188 | 8.0 | 14.0 | 0.00 | 0.00 | 0.00 | 48 | 1014.4 |
| 20260503170118 | 61 | 210 | 8.0 | 17.0 | 0.00 | 0.00 | 0.00 | 50 | 1014.5 |
| 20260503160105 | 59 | 219 | 10.0 | 17.0 | 0.00 | 0.00 | 0.00 | 53 | 1015.9 |
| 20260503081555 | 45 | 215 | 5.0 | 8.0 | 0.00 | 0.00 | 0.00 | 60 | 1017.5 |
| 20260503080103 | 45 | 215 | 4.0 | 8.0 | 0.00 | 0.00 | 0.00 | 60 | 1017.5 |
| 20260503071603 | 46 | 213 | 4.0 | 7.0 | 0.00 | 0.00 | 0.00 | 58 | 1017.7 |
| 20260503060140 | 47 | 211 | 2.0 | 7.0 | 0.00 | 0.00 | 0.00 | 54 | 1018.1 |
| 20260503054557 | 47 | 261 | 3.0 | 4.0 | 0.00 | 0.00 | 0.00 | 54 | 1018.1 |
| 20260503053038 | 47 | 273 | 2.0 | 4.0 | 0.00 | 0.00 | 0.00 | 54 | 1018.1 |
| 20260503051535 | 47 | 286 | 1.0 | 4.0 | 0.00 | 0.00 | 0.00 | 56 | 1018.2 |
| 20260503050034 | 47 | 321 | 1.0 | 4.0 | 0.00 | 0.00 | 0.00 | 56 | 1018.2 |
| 20260503044539 | 47 | 335 | 1.0 | 3.0 | 0.00 | 0.00 | 0.00 | 57 | 1018.2 |
| 20260503043041 | 47 | 337 | 0.0 | 3.0 | 0.00 | 0.00 | 0.00 | 56 | 1018.2 |
| 20260503041531 | 46 | 339 | 0.0 | 0.0 | 0.00 | 0.00 | 0.00 | 58 | 1018.2 |
| 20260503040033 | 46 | 339 | 0.0 | 0.0 | 0.00 | 0.00 | 0.00 | 58 | 1018.2 |
| 20260503034530 | 46 | 339 | 0.0 | 0.0 | 0.00 | 0.00 | 0.00 | 60 | 1018.3 |
| 20260503033029 | 46 | 339 | 0.0 | 0.0 | 0.00 | 0.00 | 0.00 | 61 | 1018.3 |
| 20260503031529 | 46 | 339 | 0.0 | 0.0 | 0.00 | 0.00 | 0.00 | 60 | 1018.5 |
| 20260503030034 | 47 | 339 | 0.0 | 0.0 | 0.00 | 0.00 | 0.00 | 60 | 1018.6 |
| 20260503024528 | 47 | 339 | 0.0 | 0.0 | 0.00 | 0.00 | 0.00 | 58 | 1018.5 |
| 20260503023028 | 47 | 339 | 0.0 | 0.0 | 0.00 | 0.00 | 0.00 | 57 | 1018.4 |
| 20260503021527 | 48 | 339 | 0.0 | 0.0 | 0.00 | 0.00 | 0.00 | 56 | 1018.3 |
| 20260503020027 | 49 | 339 | 0.0 | 0.0 | 0.00 | 0.00 | 0.00 | 55 | 1018.3 |
| 20260503014526 | 49 | 339 | 0.0 | 0.0 | 0.00 | 0.00 | 0.00 | 53 | 1018.0 |